User: anonymous   Login
Location: NJAA Observatory
(40.6819°N, 74.8979°W)
Time: 23:59:09
(UTC-04:00)
Language:

Landsat 5 - Orbit

View from above orbital plane
View from above orbital plane
View from above satellite
View from above satellite

Ground track
Ground track

The orbit data is extracted from the following two-line orbital elements,

1 14780U 84021A   17231.37723998  .00000216  00000-0  26268-4 0  9994
2 14780  98.0451 344.5810 0089972 322.0116  37.4777 14.91524777785297
Epoch (UTC): 19 August 2017 09:03:13
Eccentricity: 0.0089972
inclination: 98.0451°
perigee height: 530 km
apogee height: 656 km
right ascension of ascending node: 344.5810°
argument of perigee: 322.0116°
revolutions per day: 14.91524777
mean anomaly at epoch: 37.4777°
orbit number at epoch: 78529

The dashed part of the orbit path shows where the satellite is in the earth's shadow,  

DLR